This is the latest recevied weather packets stored in our database for station/object DH6PF-10. If no packets are shown the sender has not sent any weather packets the latest 10 day(s).
| Time | Temp. | Humidity | Pressure | Rain* | Wind** | Luminosity | Snow |
|---|---|---|---|---|---|---|---|
| 1787609510 | 16.67° C | 64% | 1017.1 hPa | - | - | - | - |
| 1787608910 | 17.22° C | 63% | 1017.3 hPa | - | - | - | - |
| 1787608310 | 17.22° C | 62% | 1017.1 hPa | - | - | - | - |
| 1787607710 | 17.22° C | 61% | 1016.6 hPa | - | - | - | - |
| 1787607110 | 17.22° C | 60% | 1017.3 hPa | - | - | - | - |
| 1787606510 | 17.22° C | 60% | 1017.4 hPa | - | - | - | - |
| 1787605910 | 17.22° C | 60% | 1017.4 hPa | - | - | - | - |
| 1787605310 | 17.22° C | 60% | 1017.5 hPa | - | - | - | - |
| 1787604710 | 16.67° C | 61% | 1017.5 hPa | - | - | - | - |
| 1787604110 | 16.67° C | 64% | 1017.5 hPa | - | - | - | - |
| 1787603510 | 17.22° C | 61% | 1017.9 hPa | - | - | - | - |
| 1787602910 | 16.67° C | 61% | 1017.8 hPa | - | - | - | - |
| 1787602310 | 16.67° C | 64% | 1018 hPa | - | - | - | - |
| 1787601710 | 17.22° C | 62% | 1018.1 hPa | - | - | - | - |
| 1787601110 | 17.22° C | 63% | 1018.4 hPa | - | - | - | - |
| 1787600510 | 17.22° C | 65% | 1018.3 hPa | - | - | - | - |
| 1787599910 | 17.22° C | 65% | 1018.3 hPa | - | - | - | - |
| 1787599310 | 17.22° C | 64% | 1018.4 hPa | - | - | - | - |
| 1787598710 | 17.78° C | 62% | 1018.4 hPa | - | - | - | - |
| 1787598110 | 18.33° C | 60% | 1018.4 hPa | - | - | - | - |
| 1787597510 | 18.33° C | 59% | 1018.4 hPa | - | - | - | - |
| 1787596910 | 18.89° C | 56% | 1018.2 hPa | - | - | - | - |
| 1787596310 | 19.44° C | 55% | 1018.1 hPa | - | - | - | - |
| 1787595710 | 19.44° C | 53% | 1018.4 hPa | - | - | - | - |
| 1787595110 | 19.44° C | 53% | 1018.4 hPa | - | - | - | - |
* Rain since midnight (hover to see other rain measurements)
** Current wind speed in m/s (hover to see current wind gust speed)